Volver al catálogo

DELTA 1 DEB

ActivoLEO
NORAD 19429·DEBRIS·🇺🇸 United States

Lanzado Jul 14, 1977 desde Cape Canaveral Space Force Station

Loading…

Próximos Pases (próximas 24 horas)

TLE

ActualizadoSource: Space-Track

Época: Sep 13, 2026, 09:37 UTC

1 19429U 77065GB  26256.40108209  .00006380  00000-0  67714-3 0  9990
2 19429  29.1038 304.0486 0357745 325.1771  32.5885 14.50193059899501

Sigue DELTA 1 DEB en tiempo real con AllMySat

Download on the App Store